Regional Weather Roundup
Issued by NWS Cleveland, OH

Home | Current Version | Previous Version | Text Only | Print | Product List | Glossary Off
Versions: 1 2 3 4 5 6 7 8 9 10 11 12 13 14 15 16 17 18 19 20 21 22 23 24 25 26 27 28 29 30 31 32 33 34 35 36 37 38 39 40 41 42 43 44 45 46 47 48 49 50

000
ASUS41 KCLE 210902
RWRCLE
OHIO REGIONAL WEATHER ROUNDUP
NATIONAL WEATHER SERVICE CLEVELAND, OH
500 AM EDT TUE APR 21 2015

NOTE: "FAIR" INDICATES FEW OR NO CLOUDS BELOW 12,000 FEET WITH NO
SIGNIFICANT WEATHER AND/OR OBSTRUCTIONS TO VISIBILITY.

OHZ001>008-015>018-024>027-034-035-043-044-211000-
   NORTHWEST OHIO

CITY           SKY/WX    TMP DP  RH WIND       PRES   REMARKS
DEFIANCE       MOCLDY    43  35  73 SW12      29.65F
FINDLAY        PTCLDY    44  34  67 SW14      29.67S
TOLEDO EXPRESS   N/A     42  36  79 SW9       29.63F
TOLEDO EXEC    MOCLDY    43  36  76 SW13      29.66R
LIMA           MOCLDY    44  33  65 SW10      29.69F
$$

OHZ009>014-019>023-028>033-038-089-211000-
   NORTHEAST OHIO

CITY           SKY/WX    TMP DP  RH WIND       PRES   REMARKS
CLE-HOPKINS    PTCLDY    43  33  68 SW13      29.69S
CLE-LAKEFRONT  CLEAR     45  32  60 SW17G24   29.67R
CUY CO. ARPT   NOT AVBL
LORAIN-ELYRIA  MOCLDY    43  35  73 SW15      29.68S
ASHTABULA      CLOUDY    45  31  58 W21       29.66R
AKRON-CANTON   MOCLDY    44  33  65 SW10      29.70S
WOOSTER        CLOUDY    43  35  73 SW9       29.71R
MANSFIELD      CLOUDY    43  34  70 SW15G21   29.69S
YOUNGSTOWN     FAIR      43  30  60 SW15G23   29.68R
$$

OHZ042-051>053-060>062-070>072-077>081-211000-
  SOUTHWEST OHIO

CITY           SKY/WX    TMP DP  RH WIND       PRES   REMARKS
CINC-COVINGTON CLEAR     43  34  70 SW6       29.80S
CINC-LUNKEN    PTCLDY    43  38  82 S8        29.82S
HAMILTON       PTCLDY    43  35  73 SW3       29.80S
DAYTON         PTCLDY    44  35  70 SW12      29.75F
WRIGHT-PAT AFB PTCLDY    43  35  73 SW10      29.75F
DAYTON GENERAL PTCLDY    45  32  60 SW13      29.76F
WILMINGTON     MOCLDY    44  33  65 SW12      29.77F
$$

OHZ036-037-039>041-045>050-054>059-063>069-073>076-082>088-211000-
  CENTRAL AND SOUTHEAST OHIO

CITY           SKY/WX    TMP DP  RH WIND       PRES   REMARKS
COLUMBUS       MOCLDY    45  35  68 SW9       29.76S
OSU AIRPORT    MOCLDY    45  34  65 SW9       29.75S
BOLTON FIELD   NOT AVBL
RICKENBACK AFB NOT AVBL
NEWARK         PTCLDY    45  36  70 SW8       29.75S
MARION         CLOUDY    43  35  73 SW17G25   29.72S
LANCASTER      PTCLDY    44  35  70 SW6       29.77S
ZANESVILLE     PTCLDY    44  34  67 SW10      29.76R
NEW PHILLY     CLOUDY    48  33  56 SW7       29.74R
$$


USA.gov is the U.S. government's official web portal to all federal, state and local government web resources and services.